• In Belgien
  • Länderverzeichnis
  • Für 7 Tage
  • Wassertemperatur
  • Satellitenkarten
  • Wetterkarte
  • Widgets
  • user-avatar
    Anmelden

    Stündliche Wetter Nivelles

    Heute, 21 Mai, Montag

    Zeit Temperatur Niederschläge Wind Luftdruck Luftfeuchtigkeit
    00:00 +14°C° 0,1 mm 2 m/S 753 mmHg 85%
    01:00 +13°C° 0,1 mm 3 m/S 752 mmHg 86%
    02:00 +13°C° 0,1 mm 3 m/S 752 mmHg 87%
    03:00 +12°C° 0,1 mm 3 m/S 752 mmHg 88%
    04:00 +13°C° 0,2 mm 3 m/S 752 mmHg 88%
    05:00 +13°C° 0,2 mm 3 m/S 751 mmHg 88%
    06:00 +14°C° 0,2 mm 3 m/S 751 mmHg 88%
    07:00 +15°C° 0,1 mm 4 m/S 751 mmHg 82%
    08:00 +18°C° 0,1 mm 4 m/S 751 mmHg 77%
    09:00 +19°C° 0,1 mm 4 m/S 751 mmHg 72%
    10:00 +20°C° 0,5 mm 4 m/S 750 mmHg 70%
    11:00 +21°C° 0,5 mm 4 m/S 750 mmHg 68%
    12:00 +22°C° 0,5 mm 4 m/S 750 mmHg 66%
    13:00 +22°C° 0,4 mm 4 m/S 749 mmHg 64%
    14:00 +22°C° 0,4 mm 4 m/S 749 mmHg 63%
    15:00 +24°C° 0,4 mm 3 m/S 748 mmHg 62%
    16:00 +22°C° 0,3 mm 3 m/S 748 mmHg 66%
    17:00 +21°C° 0,3 mm 2 m/S 748 mmHg 71%
    18:00 +21°C° 0,3 mm 2 m/S 748 mmHg 76%
    19:00 +19°C° 0,2 mm 2 m/S 748 mmHg 79%
    20:00 +19°C° 0,2 mm 1 m/S 748 mmHg 83%
    21:00 +16°C° 0,2 mm 1 m/S 748 mmHg 86%
    22:00 +15°C° 0,1 mm 1 m/S 748 mmHg 87%
    23:00 +15°C° 0,1 mm 1 m/S 748 mmHg 88%

    Morgen, 22 Mai, Dienstag

    Zeit Temperatur Niederschläge Wind Luftdruck Luftfeuchtigkeit
    00:00 +14°C° 0,1 mm 1 m/S 748 mmHg 89%
    01:00 +14°C° 0 mm 1 m/S 748 mmHg 90%
    02:00 +14°C° 0 mm 1 m/S 747 mmHg 91%
    03:00 +13°C° 0 mm 1 m/S 747 mmHg 91%
    04:00 +14°C° 0 mm 1 m/S 747 mmHg 90%
    05:00 +15°C° 0 mm 1 m/S 748 mmHg 89%
    06:00 +16°C° 0 mm 1 m/S 748 mmHg 87%
    07:00 +19°C° 0 mm 1 m/S 748 mmHg 81%
    08:00 +20°C° 0 mm 1 m/S 748 mmHg 76%
    09:00 +22°C° 0 mm 1 m/S 749 mmHg 70%
    10:00 +23°C° 0,2 mm 1 m/S 749 mmHg 66%
    11:00 +23°C° 0,2 mm 1 m/S 749 mmHg 63%
    12:00 +24°C° 0,2 mm 2 m/S 749 mmHg 60%
    13:00 +24°C° 0,6 mm 2 m/S 749 mmHg 61%
    14:00 +24°C° 0,6 mm 2 m/S 749 mmHg 61%
    15:00 +24°C° 0,6 mm 2 m/S 749 mmHg 62%
    16:00 +24°C° 0,6 mm 2 m/S 749 mmHg 67%
    17:00 +23°C° 0,6 mm 2 m/S 749 mmHg 72%
    18:00 +21°C° 0,6 mm 2 m/S 749 mmHg 77%
    19:00 +19°C° 0,4 mm 2 m/S 750 mmHg 81%
    20:00 +18°C° 0,4 mm 2 m/S 750 mmHg 84%
    21:00 +16°C° 0,4 mm 2 m/S 750 mmHg 88%
    22:00 +16°C° 0,6 mm 1 m/S 751 mmHg 89%
    23:00 +15°C° 0,6 mm 1 m/S 751 mmHg 91%

    übermorgen, 23 Mai, Mittwoch

    Zeit Temperatur Niederschläge Wind Luftdruck Luftfeuchtigkeit
    00:00 +15°C° 0,6 mm 1 m/S 751 mmHg 92%
    01:00 +15°C° 0 mm 1 m/S 751 mmHg 93%
    02:00 +14°C° 0 mm 1 m/S 751 mmHg 93%
    03:00 +14°C° 0 mm 1 m/S 751 mmHg 94%
    04:00 +15°C° 0 mm 1 m/S 752 mmHg 93%
    05:00 +15°C° 0 mm 2 m/S 752 mmHg 92%
    06:00 +16°C° 0 mm 2 m/S 752 mmHg 91%
    07:00 +18°C° 0,1 mm 2 m/S 753 mmHg 86%
    08:00 +19°C° 0,1 mm 2 m/S 753 mmHg 81%
    09:00 +21°C° 0,1 mm 2 m/S 753 mmHg 75%
    10:00 +22°C° 1 mm 3 m/S 753 mmHg 72%
    11:00 +24°C° 1 mm 3 m/S 753 mmHg 69%
    12:00 +24°C° 1 mm 3 m/S 753 mmHg 66%
    13:00 +23°C° 0,4 mm 4 m/S 753 mmHg 66%
    14:00 +23°C° 0,4 mm 4 m/S 753 mmHg 66%
    15:00 +23°C° 0,4 mm 4 m/S 753 mmHg 66%
    16:00 +23°C° 0,3 mm 4 m/S 753 mmHg 70%
    17:00 +22°C° 0,3 mm 4 m/S 753 mmHg 75%
    18:00 +21°C° 0,3 mm 4 m/S 753 mmHg 79%
    19:00 +20°C° 0,3 mm 4 m/S 753 mmHg 82%
    20:00 +18°C° 0,3 mm 3 m/S 753 mmHg 85%
    21:00 +17°C° 0,3 mm 3 m/S 753 mmHg 88%
    22:00 +17°C° 0,2 mm 3 m/S 753 mmHg 90%
    23:00 +16°C° 0,2 mm 3 m/S 753 mmHg 91%

    24 Mai, Donnerstag

    Zeit Temperatur Niederschläge Wind Luftdruck Luftfeuchtigkeit
    00:00 +16°C° 0,2 mm 3 m/S 753 mmHg 92%
    01:00 +14°C° 0,1 mm 3 m/S 753 mmHg 93%
    02:00 +14°C° 0,1 mm 3 m/S 753 mmHg 93%
    03:00 +14°C° 0,1 mm 3 m/S 753 mmHg 94%
    04:00 +14°C° 0,2 mm 3 m/S 753 mmHg 93%
    05:00 +15°C° 0,2 mm 4 m/S 753 mmHg 92%
    06:00 +15°C° 0,2 mm 4 m/S 753 mmHg 91%
    07:00 +17°C° 0,3 mm 4 m/S 753 mmHg 89%
    08:00 +18°C° 0,3 mm 4 m/S 753 mmHg 86%
    09:00 +19°C° 0,3 mm 4 m/S 753 mmHg 84%
    10:00 +20°C° 0,3 mm 3 m/S 753 mmHg 80%
    11:00 +21°C° 0,3 mm 3 m/S 753 mmHg 75%
    12:00 +22°C° 0,3 mm 3 m/S 752 mmHg 71%
    13:00 +22°C° 0,6 mm 3 m/S 752 mmHg 71%
    14:00 +24°C° 0,6 mm 2 m/S 752 mmHg 71%
    15:00 +24°C° 0,6 mm 2 m/S 752 mmHg 71%
    16:00 +23°C° 1 mm 2 m/S 752 mmHg 76%
    17:00 +21°C° 1 mm 2 m/S 752 mmHg 80%
    18:00 +21°C° 1 mm 2 m/S 751 mmHg 84%
    19:00 +19°C° 0,7 mm 2 m/S 751 mmHg 86%
    20:00 +18°C° 0,7 mm 2 m/S 751 mmHg 88%
    21:00 +17°C° 0,7 mm 2 m/S 751 mmHg 90%
    22:00 +16°C° 0 mm 2 m/S 751 mmHg 91%
    23:00 +16°C° 0 mm 1 m/S 751 mmHg 91%

    25 Mai, Freitag

    Zeit Temperatur Niederschläge Wind Luftdruck Luftfeuchtigkeit
    00:00 +15°C° 0 mm 1 m/S 751 mmHg 92%
    01:00 +15°C° 0,1 mm 1 m/S 751 mmHg 93%
    02:00 +14°C° 0,1 mm 1 m/S 751 mmHg 94%
    03:00 +14°C° 0,1 mm 1 m/S 751 mmHg 95%
    04:00 +15°C° 0 mm 1 m/S 751 mmHg 94%
    05:00 +15°C° 0 mm 2 m/S 751 mmHg 94%
    06:00 +16°C° 0 mm 2 m/S 751 mmHg 93%
    07:00 +17°C° 0,1 mm 2 m/S 751 mmHg 91%
    08:00 +17°C° 0,1 mm 2 m/S 752 mmHg 89%
    09:00 +18°C° 0,1 mm 2 m/S 752 mmHg 86%
    10:00 +19°C° 0,5 mm 3 m/S 752 mmHg 85%
    11:00 +19°C° 0,5 mm 3 m/S 752 mmHg 83%
    12:00 +20°C° 0,5 mm 3 m/S 752 mmHg 82%
    13:00 +20°C° 0,2 mm 3 m/S 752 mmHg 80%
    14:00 +21°C° 0,2 mm 3 m/S 752 mmHg 78%
    15:00 +21°C° 0,2 mm 3 m/S 752 mmHg 76%
    16:00 +20°C° 0,2 mm 3 m/S 752 mmHg 79%
    17:00 +20°C° 0,2 mm 3 m/S 752 mmHg 82%
    18:00 +19°C° 0,2 mm 3 m/S 752 mmHg 85%
    19:00 +18°C° 0 mm 3 m/S 752 mmHg 88%
    20:00 +16°C° 0 mm 2 m/S 753 mmHg 91%
    21:00 +15°C° 0 mm 2 m/S 753 mmHg 95%
    22:00 +15°C° 0 mm 2 m/S 753 mmHg 95%
    23:00 +14°C° 0 mm 2 m/S 753 mmHg 95%

    26 Mai, Samstag

    Zeit Temperatur Niederschläge Wind Luftdruck Luftfeuchtigkeit
    00:00 +14°C° 0 mm 1 m/S 753 mmHg 96%
    01:00 +14°C° 0 mm 1 m/S 753 mmHg 96%
    02:00 +14°C° 0 mm 1 m/S 753 mmHg 96%
    03:00 +13°C° 0 mm 1 m/S 753 mmHg 96%
    04:00 +14°C° 0 mm 1 m/S 753 mmHg 95%
    05:00 +15°C° 0 mm 1 m/S 753 mmHg 93%
    06:00 +15°C° 0 mm 1 m/S 753 mmHg 92%
    07:00 +18°C° 0 mm 1 m/S 754 mmHg 87%
    08:00 +19°C° 0 mm 1 m/S 754 mmHg 82%
    09:00 +20°C° 0 mm 1 m/S 754 mmHg 77%
    10:00 +21°C° 0 mm 1 m/S 754 mmHg 73%
    11:00 +22°C° 0 mm 1 m/S 754 mmHg 69%
    12:00 +22°C° 0 mm 1 m/S 754 mmHg 66%
    13:00 +23°C° 0 mm 1 m/S 754 mmHg 66%
    14:00 +23°C° 0 mm 1 m/S 754 mmHg 67%
    15:00 +23°C° 0 mm 1 m/S 754 mmHg 67%
    16:00 +23°C° 0,1 mm 1 m/S 754 mmHg 70%
    17:00 +22°C° 0,1 mm 1 m/S 754 mmHg 74%
    18:00 +22°C° 0,1 mm 1 m/S 754 mmHg 77%
    19:00 +20°C° 0 mm 2 m/S 754 mmHg 82%
    20:00 +18°C° 0 mm 2 m/S 754 mmHg 86%
    21:00 +17°C° 0 mm 2 m/S 755 mmHg 91%
    22:00 +16°C° 0 mm 2 m/S 755 mmHg 92%
    23:00 +16°C° 0 mm 2 m/S 755 mmHg 93%
    Mehr zeigen